1498208400.28,2365,20.0,73754.0,10.25,-5.35,-6.93,0,*76
1498208401.48,2366,20.06,73756.5,10.25,-6.43,-7.05,0,*79
1498208402.73,2367,20.06,73754.8,10.27,-6.31,-5.89,0,*79
1498208403.96,2368,20.0,73760.8,10.29,-6.27,-4.81,0,*76
1498208405.2,2369,20.06,73762.3,10.31,-5.97,-3.59,0,*74
1498208406.43,2370,20.06,73760.0,10.35,-6.19,-3.15,0,*75
1498208407.63,2371,20.06,73760.0,10.39,-6.01,-2.23,0,*75
1498208408.89,2372,20.06,73752.3,10.45,-5.65,-1.05,0,*7B
1498208410.12,2373,20.06,73756.5,10.47,-5.81,-0.85,0,*4B
1498208411.38,2374,20.0,73764.0,10.53,-5.27,-0.27,0,*4D
1498208412.64,2375,20.06,73756.8,10.53,-5.15,-0.27,0,*4D
1498208413.87,2376,20.0,73754.0,10.57,-4.25,0.55,0,*60
1498208415.09,2377,20.06,73754.3,10.61,-4.05,0.75,0,*64
1498208416.29,2378,20.06,73748.5,10.63,-3.39,1.47,0,*51
1498208417.52,2379,20.06,73732.5,10.67,-3.59,1.47,0,*52
1498208418.75,2380,20.06,73732.5,10.71,-3.39,1.93,0,*5C
1498208419.98,2381,20.06,73734.3,10.75,-3.63,1.83,0,*57
1498208421.21,2382,20.06,73738.0,10.75,-3.39,2.05,0,*56
1498208422.41,2383,20.06,73742.3,10.77,-2.35,2.81,0,*54
1498208423.63,2384,20.06,73752.3,10.79,-1.63,3.23,0,*54
1498208424.82,2385,20.0,73750.5,10.83,-0.37,4.07,0,*61
1498208426.03,2386,20.0,73746.5,10.83,0.01,4.05,0,*78
1498208427.25,2387,20.06,73740.3,10.83,-0.53,3.11,0,*61
1498208428.46,2388,20.06,73740.8,10.85,0.37,3.75,0,*45
1498208429.65,2389,20.06,73746.8,10.85,-0.15,2.85,0,*67
1498208430.86,2390,20.06,73748.8,10.85,0.13,2.85,0,*44
1498208432.09,2391,20.06,73754.5,10.89,1.37,3.75,0,*70
1498208433.28,2392,20.06,73760.5,10.89,1.59,3.63,0,*7C
1498208434.51,2393,20.06,73774.5,10.91,2.59,4.33,0,*75
1498208435.7,2394,20.06,73780.5,10.93,2.27,3.79,0,*70
1498208436.95,2395,20.0,73772.3,10.95,2.13,3.23,0,*7F
1498208438.19,2396,20.06,73768.8,10.95,2.13,2.85,0,*71
1498208439.44,2397,20.06,73766.5,10.95,2.77,3.11,0,*7E
1498208440.7,2398,20.06,73766.0,10.95,2.17,2.13,0,*74
1498208441.92,2399,20.06,73758.3,10.95,1.21,0.97,0,*4D
1498208443.17,2400,20.06,73760.3,10.95,0.87,0.55,0,*79
1498208444.37,2401,20.06,73764.0,10.95,0.37,0.01,0,*42
1498208445.6,2402,20.06,73766.8,10.91,-0.97,-1.29,0,*44
1498208446.83,2403,20.06,73768.3,10.91,-1.09,-1.29,0,*73
1498208448.03,2404,20.06,73764.5,10.89,-0.73,-0.93,0,*71
1498208449.2,2405,20.06,73760.5,10.85,-0.53,-0.61,0,*73
1498208450.37,2406,20.06,73768.0,10.85,-0.77,-0.53,0,*77
1498208451.54,2407,20.06,73774.0,10.85,-0.53,-0.03,0,*45
1498208452.76,2408,20.06,73772.3,10.89,-0.85,-0.23,0,*7F
1498208453.96,2409,20.06,73768.8,10.85,-2.23,-1.13,0,*7E
1498208455.14,2410,20.06,73766.3,10.85,-3.23,-1.63,0,*70
1498208456.35,2411,20.06,73760.3,10.85,-3.67,-1.71,0,*72
1498208457.55,2412,20.06,73764.5,10.89,-3.11,-0.89,0,*4A
1498208458.74,2413,20.06,73768.8,10.89,-2.95,-0.11,0,*47
1498208459.93,2414,20.06,73770.5,10.89,-3.07,0.17,0,*61
1498208461.12,2415,20.06,73770.3,10.89,-3.11,0.67,0,*60
1498208462.29,2416,20.06,73768.0,10.93,-2.91,1.41,0,*54
1498208463.51,2417,20.06,73768.8,10.95,-3.03,1.67,0,*5D
1498208464.71,2418,20.06,73768.0,10.97,-3.19,1.97,0,*54
1498208465.9,2419,20.0,73764.0,10.99,-3.07,2.35,0,*5F
1498208467.09,2420,20.06,73768.8,11.01,-2.95,2.91,0,*51
1498208468.3,2421,20.06,73768.0,11.05,-3.23,2.85,0,*5D
1498208469.55,2422,20.06,73768.8,11.07,-3.39,2.89,0,*5B
1498208470.76,2423,20.06,73766.8,11.13,-3.43,2.95,0,*5F
1498208472.0,2424,20.06,73764.0,11.11,-3.43,2.91,0,*5E
1498208473.24,2425,20.06,73764.8,11.15,-3.19,3.23,0,*5C
1498208474.46,2426,20.06,73768.8,11.15,-2.31,3.93,0,*5F
1498208475.7,2427,20.06,73766.8,11.19,-3.39,3.11,0,*51
1498208476.92,2428,20.06,73766.3,11.17,-3.39,3.07,0,*57
1498208478.16,2429,20.06,73770.3,11.19,-3.11,3.37,0,*51
1498208479.4,2430,20.06,73766.8,11.19,-2.83,3.71,0,*51
1498208480.66,2431,20.06,73768.8,11.23,-1.91,4.59,0,*54
1498208481.91,2432,20.06,73770.5,11.23,-1.39,5.19,0,*50
1498208483.1,2433,20.06,73766.5,11.25,-0.57,6.03,0,*66
1498208484.34,2434,20.06,73766.8,11.31,0.13,6.69,0,*45
1498208485.56,2435,20.06,73766.0,11.31,0.43,7.11,0,*4F
1498208486.75,2436,20.06,73764.0,11.35,0.05,6.57,0,*79
1498208487.94,2437,20.06,73764.5,11.39,-0.53,5.99,0,*6B
1498208489.14,2438,20.06,73768.5,11.41,-0.03,6.25,0,*5A
1498208490.38,2439,20.06,73772.0,11.41,0.51,6.39,0,*4C
1498208491.63,2440,20.06,73772.5,11.45,0.79,6.17,0,*40
1498208492.88,2441,20.06,73774.0,11.45,0.79,5.81,0,*4D
1498208494.08,2442,20.0,73772.3,11.43,1.43,6.21,0,*79
1498208495.31,2443,20.0,73774.0,11.45,2.01,6.21,0,*7B
1498208496.51,2444,20.0,73776.0,11.47,1.89,5.63,0,*78
1498208497.75,2445,20.06,73778.5,11.47,2.13,5.55,0,*7C
1498208498.98,2446,20.0,73774.3,11.47,1.67,4.97,0,*70
1498208500.21,2447,20.0,73774.5,11.49,1.33,4.27,0,*75
1498208501.42,2448,20.06,73776.3,11.47,1.41,4.31,0,*76
1498208502.65,2449,20.06,73774.8,11.47,1.51,4.31,0,*76
1498208503.86,2450,20.06,73782.0,11.49,2.27,5.11,0,*71
1498208505.06,2451,20.06,73776.0,11.47,2.73,5.41,0,*7A
1498208506.29,2452,20.06,73776.8,11.51,3.15,5.73,0,*7E
1498208507.53,2453,20.06,73782.3,11.47,3.07,5.55,0,*7F
1498208508.77,2454,20.06,73778.3,11.49,2.73,5.27,0,*71
1498208509.99,2455,20.06,73782.0,11.47,1.97,4.37,0,*77
1498208511.22,2456,20.06,73784.5,11.47,2.13,4.59,0,*73
1498208512.43,2457,20.06,73780.8,11.49,1.89,4.19,0,*78
1498208513.66,2458,20.06,73784.0,11.47,1.63,4.01,0,*74
1498208514.88,2459,20.06,73788.0,11.47,1.55,3.89,0,*77
1498208516.08,2460,20.06,73790.0,11.45,1.75,3.93,0,*76
1498208517.31,2461,20.06,73798.5,11.45,1.51,3.63,0,*7E
1498208518.55,2462,20.06,73786.0,11.43,1.37,3.53,0,*78
1498208519.77,2463,20.06,73770.5,11.41,1.05,3.23,0,*7D
1498208520.97,2464,20.06,73762.8,11.39,-0.53,1.43,0,*6E
1498208522.19,2465,20.06,73756.5,11.35,-1.01,1.05,0,*57
1498208523.42,2466,20.06,73752.5,11.27,-0.65,1.33,0,*61
1498208524.64,2467,20.06,73754.3,11.25,-0.93,0.83,0,*51
1498208525.84,2468,20.06,73738.3,11.21,-0.33,1.59,0,*66
1498208527.07,2469,20.06,73730.3,11.19,0.71,2.65,0,*4B
1498208528.28,2470,20.06,73724.0,11.17,0.97,2.89,0,*47
1498208529.49,2471,20.06,73724.8,11.17,0.83,2.61,0,*45
1498208530.73,2472,20.0,73724.5,11.15,0.71,2.61,0,*49
1498208531.97,2473,20.06,73732.0,11.13,1.13,3.15,0,*79
1498208533.18,2474,20.06,73736.3,11.13,2.01,3.89,0,*7B
1498208534.44,2475,20.06,73738.5,11.11,1.67,3.75,0,*78
1498208535.71,2476,20.06,73740.3,11.07,1.37,3.37,0,*7F
1498208536.95,2477,20.06,73742.0,11.07,1.85,3.81,0,*7A
1498208538.18,2478,20.06,73752.0,11.05,1.71,3.79,0,*7B
1498208539.43,2479,20.06,73752.8,11.05,1.55,3.71,0,*74
1498208540.64,2480,20.06,73756.0,11.05,1.71,3.81,0,*7B
1498208541.83,2481,20.0,73756.8,11.05,2.27,4.37,0,*70
1498208543.05,2482,20.06,73762.5,11.05,2.25,4.41,0,*70
1498208544.25,2483,20.06,73762.5,11.05,1.93,4.27,0,*7F
1498208545.44,2484,20.06,73762.5,11.05,2.27,4.53,0,*77
1498208546.65,2485,20.06,73764.8,11.05,2.25,4.57,0,*70
1498208547.87,2486,20.06,73764.5,11.05,2.73,5.11,0,*73
1498208549.05,2487,20.06,73766.3,11.05,2.99,5.45,0,*77
1498208550.26,2488,20.06,73768.8,11.05,3.37,6.03,0,*7C
1498208551.5,2489,20.06,73768.8,11.07,3.85,6.39,0,*7F
1498208552.76,2490,20.06,73768.8,11.11,4.05,6.47,0,*76
1498208553.99,2491,20.06,73770.0,11.11,4.33,6.65,0,*72
1498208555.2,2492,20.06,73770.5,11.13,4.11,6.43,0,*77
1498208556.43,2493,20.06,73764.8,11.15,4.63,6.79,0,*7C
1498208557.64,2494,20.06,73766.5,11.15,4.19,6.29,0,*73
1498208558.84,2495,20.06,73768.8,11.17,4.07,6.13,0,*76
1498208560.05,2496,20.06,73770.3,11.17,3.93,5.81,0,*77
1498208561.24,2497,20.06,73768.0,11.17,3.93,5.71,0,*79
1498208562.43,2498,20.06,73764.5,11.17,3.93,5.71,0,*76
1498208563.64,2499,20.06,73764.8,11.17,3.97,5.59,0,*79
1498208564.85,2500,20.0,73766.0,11.17,4.15,5.55,0,*79
1498208566.03,2501,20.06,73768.0,11.17,4.07,5.49,0,*76
1498208567.25,2502,20.06,73766.3,11.15,3.93,5.19,0,*78
1498208568.47,2503,20.06,73768.3,11.15,4.15,5.33,0,*78
1498208569.67,2504,20.06,73770.8,11.15,4.41,5.49,0,*73
1498208570.85,2505,20.06,73766.3,11.13,4.45,5.29,0,*76
1498208572.07,2506,20.06,73768.5,11.13,4.15,4.93,0,*70
1498208573.25,2507,20.06,73768.5,11.13,4.15,4.85,0,*76
1498208574.52,2508,20.06,73764.8,11.11,4.05,4.71,0,*71
1498208575.73,2509,20.06,73768.8,11.07,4.33,4.81,0,*7D
1498208577.0,2510,20.0,73764.8,11.07,4.59,5.01,0,*70
1498208578.26,2511,20.06,73768.3,11.07,5.01,5.27,0,*79
1498208579.5,2512,20.0,73768.8,11.03,4.75,4.89,0,*79
1498208580.69,2513,20.06,73770.3,11.05,4.85,5.07,0,*76
1498208581.93,2514,20.06,73768.8,11.03,4.97,5.19,0,*7B
1498208583.11,2515,20.06,73768.8,11.01,5.07,5.19,0,*70
1498208584.32,2516,20.06,73774.0,11.01,5.07,5.05,0,*7E
1498208585.51,2517,20.06,73774.8,11.01,5.19,5.19,0,*7D
1498208586.71,2518,20.0,73768.0,10.99,5.19,5.15,0,*7E
1498208587.92,2519,20.06,73770.8,10.99,5.27,5.15,0,*72
1498208589.14,2520,20.06,73772.8,10.99,5.07,4.97,0,*71
1498208590.34,2521,20.06,73774.3,10.97,5.11,5.01,0,*77
1498208591.57,2522,20.06,73772.5,10.95,5.07,4.97,0,*7F
1498208592.78,2523,20.06,73774.3,10.95,5.23,5.11,0,*77
1498208594.0,2524,20.06,73774.5,10.95,5.11,4.97,0,*7E
1498208595.23,2525,20.06,73772.5,10.93,5.05,4.93,0,*78
1498208596.49,2526,20.06,73772.0,10.91,4.97,4.71,0,*7F
1498208597.68,2527,20.06,73772.5,10.85,4.79,4.53,0,*7B
1498208598.88,2528,20.06,73774.0,10.85,4.63,4.41,0,*7C
1498208600.08,2529,20.06,73774.3,10.85,4.63,4.33,0,*78
1498208601.31,2530,20.06,73772.0,10.81,4.97,4.71,0,*79
1498208602.48,2531,20.0,73772.3,10.81,5.19,4.81,0,*70
1498208603.7,2532,20.0,73774.5,10.83,5.55,5.23,0,*70
1498208604.92,2533,20.06,73778.0,10.79,5.51,5.19,0,*79
1498208606.09,2534,20.06,73776.8,10.77,5.49,5.07,0,*76
1498208607.28,2535,20.06,73778.8,10.77,5.59,5.27,0,*74
1498208608.48,2536,20.06,73776.0,10.81,5.55,5.19,0,*7F
1498208609.65,2537,20.0,73772.8,10.77,5.49,5.15,0,*76
1498208610.81,2538,20.06,73778.5,10.77,5.63,5.29,0,*7E
1498208612.04,2539,20.06,73778.0,10.75,5.55,5.23,0,*72
1498208613.26,2540,20.06,73780.8,10.75,5.67,5.27,0,*79
1498208614.46,2541,20.06,73776.3,10.73,5.33,4.97,0,*75
1498208615.66,2542,20.06,73780.5,10.73,5.37,4.97,0,*72
1498208616.86,2543,20.06,73778.0,10.71,5.45,5.11,0,*7B
1498208618.08,2544,20.06,73776.3,10.71,5.55,5.19,0,*75
1498208619.25,2545,20.06,73778.0,10.73,5.67,5.37,0,*7B
1498208620.43,2546,20.06,73776.8,10.69,5.71,5.33,0,*70
1498208621.6,2547,20.06,73780.3,10.69,5.67,5.29,0,*7D
1498208622.77,2548,20.06,73782.3,10.69,5.71,5.29,0,*75
1498208623.94,2549,20.06,73776.8,10.69,5.71,5.41,0,*7A
1498208625.17,2550,20.06,73776.3,10.69,5.81,5.51,0,*7C
1498208626.36,2551,20.06,73780.3,10.69,5.77,5.41,0,*75
1498208627.53,2552,20.06,73782.0,10.67,5.67,5.29,0,*77
1498208628.72,2553,20.06,73780.5,10.67,5.51,5.15,0,*7C
1498208629.91,2554,20.06,73782.3,10.63,5.45,5.05,0,*7B
1498208631.14,2555,20.06,73780.3,10.61,5.23,4.75,0,*7E
1498208632.34,2556,20.06,73780.3,10.61,5.63,5.23,0,*7B
1498208633.57,2557,20.06,73782.5,10.61,5.73,5.33,0,*7A
1498208634.76,2558,20.06,73784.0,10.59,5.81,5.41,0,*76
1498208635.94,2559,20.06,73782.3,10.59,5.59,5.19,0,*7F
1498208637.15,2560,20.06,73786.8,10.59,5.51,5.11,0,*75
1498208638.33,2561,20.06,73780.8,10.59,5.67,5.23,0,*70
1498208639.56,2562,20.06,73786.8,10.59,5.51,4.97,0,*78
1498208640.77,2563,20.06,73782.0,10.57,5.27,4.85,0,*75
1498208641.97,2564,20.06,73782.0,10.55,5.41,5.05,0,*79
1498208643.18,2565,20.06,73782.3,10.55,5.51,5.07,0,*7B
1498208644.38,2566,20.06,73784.0,10.55,5.19,4.59,0,*7E
1498208645.58,2567,20.06,73788.0,10.51,4.59,4.07,0,*75
1498208646.81,2568,20.06,73782.8,10.53,4.79,4.23,0,*7C
1498208648.0,2569,20.06,73782.8,10.51,4.63,4.15,0,*71
1498208649.23,2570,20.06,73782.8,10.49,5.11,4.63,0,*75
1498208650.44,2571,20.06,73780.0,10.49,5.59,5.19,0,*74
1498208651.64,2572,20.06,73780.0,10.51,5.81,5.45,0,*72
1498208652.84,2573,20.06,73776.8,10.49,5.67,5.29,0,*78
1498208654.04,2574,20.06,73780.3,10.47,5.37,5.05,0,*7A
1498208655.25,2575,20.06,73778.5,10.49,5.49,5.19,0,*71
1498208656.45,2576,20.06,73780.0,10.47,5.63,5.27,0,*79
1498208657.67,2577,20.06,73778.3,10.49,5.81,5.45,0,*7E
1498208658.85,2578,20.06,73776.5,10.47,5.45,5.15,0,*72
1498208660.08,2579,20.06,73778.5,10.49,5.23,4.97,0,*76
1498208661.31,2580,20.0,73776.0,10.49,5.29,5.01,0,*74
1498208662.48,2581,20.06,73778.0,10.47,5.45,5.07,0,*77
1498208663.7,2582,20.06,73782.3,10.47,5.19,4.93,0,*71
1498208664.91,2583,20.06,73780.8,10.47,5.19,5.05,0,*7E
1498208666.16,2584,20.06,73780.0,10.45,5.05,4.75,0,*70
1498208667.42,2585,20.06,73782.8,10.41,5.05,4.71,0,*71
1498208668.65,2586,20.06,73782.0,10.41,5.23,4.93,0,*7A
1498208669.85,2587,20.06,73784.0,10.41,5.49,5.23,0,*7D
1498208671.05,2588,20.0,73776.3,10.41,5.63,5.37,0,*7F
1498208672.3,2589,20.06,73782.3,10.41,5.51,5.27,0,*7E
1498208673.54,2590,20.06,73782.0,10.45,5.51,5.27,0,*72
1498208674.76,2591,20.0,73776.8,10.41,5.27,5.11,0,*73
1498208675.99,2592,20.06,73782.0,10.41,5.11,4.93,0,*7E
1498208677.22,2593,20.06,73784.3,10.41,4.79,4.41,0,*7F
1498208678.39,2594,20.06,73780.5,10.39,4.49,4.07,0,*76
1498208679.63,2595,20.06,73780.5,10.37,4.75,4.37,0,*75
1498208680.8,2596,20.06,73782.0,10.39,4.85,4.53,0,*75
1498208682.0,2597,20.06,73784.0,10.37,4.49,4.15,0,*78
1498208683.23,2598,20.06,73784.8,10.37,4.41,4.05,0,*7E
1498208684.45,2599,20.06,73786.8,10.37,4.41,3.97,0,*73
1498208685.67,2600,20.06,73788.8,10.35,4.71,4.27,0,*7D
1498208686.88,2601,20.06,73784.0,10.33,4.75,4.37,0,*7F
1498208688.05,2602,20.06,73784.3,10.33,4.85,4.45,0,*76
1498208689.24,2603,20.06,73786.8,10.33,4.49,4.01,0,*77
1498208690.43,2604,20.06,73786.3,10.33,4.59,4.11,0,*70
1498208691.69,2605,20.06,73784.8,10.31,4.79,4.31,0,*73
1498208692.88,2606,20.06,73788.5,10.29,5.01,4.27,0,*70
1498208694.11,2607,20.06,73788.5,10.31,4.89,4.31,0,*7E
1498208695.34,2608,20.06,73788.0,10.31,4.45,3.79,0,*7A
1498208696.54,2609,20.06,73788.3,10.29,4.37,3.67,0,*78
1498208697.77,2610,20.06,73788.8,10.27,4.45,3.71,0,*7C
1498208698.96,2611,20.06,73790.0,10.25,4.81,4.05,0,*73
1498208700.19,2612,20.06,73788.8,10.27,5.33,4.59,0,*73
1498208701.38,2613,20.06,73788.8,10.27,5.29,4.53,0,*73
1498208702.64,2614,20.06,73788.0,10.27,4.97,4.05,0,*73
1498208703.83,2615,20.06,73786.5,10.27,5.07,4.15,0,*7B
1498208705.0,2616,20.06,73788.5,10.25,5.15,4.23,0,*7C
1498208706.2,2617,20.06,73788.3,10.27,5.45,4.45,0,*7A
1498208707.4,2618,20.06,73790.5,10.27,5.41,4.45,0,*71
1498208708.62,2619,20.06,73790.0,10.27,5.05,4.11,0,*71
1498208709.82,2620,20.0,73784.0,10.27,5.23,4.23,0,*7E
1498208711.03,2621,20.06,73788.3,10.27,5.33,4.33,0,*7F
1498208712.23,2622,20.06,73788.3,10.31,5.49,4.41,0,*73
1498208713.43,2623,20.06,73790.0,10.29,5.11,4.05,0,*76
1498208714.6,2624,20.06,73788.8,10.29,5.11,4.15,0,*70
1498208715.83,2625,20.06,73788.3,10.29,5.01,4.05,0,*71
1498208717.06,2626,20.06,73788.8,10.29,5.01,4.05,0,*72
1498208718.23,2627,20.06,73790.8,10.29,4.57,3.55,0,*73
1498208719.46,2628,20.06,73788.3,10.29,4.75,3.75,0,*7E
1498208720.71,2629,20.06,73790.0,10.31,4.59,3.75,0,*78
1498208721.91,2630,20.06,73794.8,10.29,4.57,3.71,0,*73
1498208723.11,2631,20.06,73792.5,10.31,4.41,3.59,0,*76
1498208724.33,2632,20.06,73792.5,10.31,4.33,3.53,0,*7A
1498208725.53,2633,20.06,73794.8,10.29,4.31,3.59,0,*7A
1498208726.71,2634,20.06,73796.3,10.29,4.49,3.81,0,*77
1498208727.88,2635,20.06,73796.3,10.29,4.27,3.59,0,*7B
1498208729.11,2636,20.06,73796.3,10.29,3.97,3.49,0,*75
1498208730.31,2637,20.06,73798.8,10.29,4.19,3.71,0,*7E
1498208731.54,2638,20.06,73796.0,10.27,3.93,3.45,0,*7D
1498208732.76,2639,20.06,73792.0,10.27,3.55,3.11,0,*77
1498208734.02,2640,20.06,73790.5,10.27,3.79,3.41,0,*72
1498208735.22,2641,20.06,73790.3,10.27,3.93,3.55,0,*72
1498208736.45,2642,20.06,73790.0,10.27,3.63,3.41,0,*7B
1498208737.65,2643,20.06,73786.8,10.25,4.23,4.01,0,*78
1498208738.88,2644,20.06,73788.0,10.27,4.27,4.05,0,*7D
1498208740.09,2645,20.06,73786.3,10.27,4.11,3.93,0,*71
1498208741.31,2646,20.06,73782.8,10.27,3.81,3.67,0,*77
1498208742.54,2647,20.06,73784.0,10.25,3.53,3.41,0,*7F
1498208743.74,2648,20.06,73786.8,10.25,2.69,2.61,0,*7B
1498208744.95,2649,20.06,73784.0,10.25,2.01,1.89,0,*71
1498208746.17,2650,20.06,73782.3,10.23,1.47,1.41,0,*7A
1498208747.39,2651,20.06,73784.5,10.21,2.09,2.09,0,*7F
1498208748.65,2652,20.06,73788.5,10.15,2.17,2.25,0,*7A
1498208749.89,2653,20.06,73786.0,10.15,2.51,2.61,0,*79
1498208751.09,2654,20.06,73784.0,10.13,2.35,2.51,0,*79
1498208752.32,2655,20.06,73784.3,10.11,1.75,1.85,0,*77
1498208753.58,2656,20.06,73780.3,10.11,2.13,2.25,0,*7E
1498208754.8,2657,20.06,73778.0,10.09,2.25,2.47,0,*77
1498208756.04,2658,20.06,73776.8,10.07,2.51,2.65,0,*75
1498208757.24,2659,20.06,73774.5,10.05,2.99,3.23,0,*71
1498208758.42,2660,20.06,73780.5,10.03,2.99,3.29,0,*77
1498208759.62,2661,20.06,73782.5,10.05,2.95,3.19,0,*7F
1498208760.83,2662,20.06,73778.0,10.05,3.07,3.29,0,*75
1498208762.06,2663,20.06,73784.5,10.05,2.73,3.11,0,*7D
1498208763.29,2664,20.06,73782.0,10.01,3.03,3.29,0,*73
1498208764.46,2665,20.06,73780.8,10.03,2.35,2.61,0,*79
1498208765.71,2666,20.06,73780.3,10.01,1.93,2.25,0,*77
1498208766.96,2667,20.06,73782.3,10.01,1.71,2.01,0,*7C
1498208768.18,2668,20.06,73776.5,9.99,1.37,1.71,0,*4C
1498208769.41,2669,20.06,73782.8,9.93,1.01,1.33,0,*44
1498208770.6,2670,20.06,73784.3,9.89,1.05,1.41,0,*46
1498208771.82,2671,20.06,73786.5,9.89,0.97,1.37,0,*7C
1498208773.02,2672,20.06,73788.5,9.85,0.43,0.79,0,*41
1498208774.27,2673,20.06,73786.3,9.81,0.91,1.37,0,*70
1498208775.49,2674,20.06,73778.8,9.79,1.17,1.71,0,*4D
1498208776.74,2675,20.06,73778.3,9.77,1.21,1.71,0,*47
1498208777.95,2676,20.06,73776.5,9.77,1.71,2.31,0,*46
1498208779.15,2677,20.06,73778.5,9.71,2.27,2.73,0,*47
1498208780.36,2678,20.06,73778.5,9.71,2.25,2.77,0,*4E
1498208781.61,2679,20.06,73780.0,9.73,2.77,3.33,0,*4B
1498208782.87,2680,20.06,73780.8,9.73,2.43,2.89,0,*4A
1498208784.08,2681,20.06,73780.0,9.71,1.51,1.89,0,*4A
1498208785.27,2682,20.06,73774.8,9.67,1.85,2.31,0,*47
1498208786.47,2683,20.06,73776.0,9.67,2.21,2.61,0,*4E
1498208787.7,2684,20.06,73774.8,9.67,3.03,3.33,0,*4E
1498208788.92,2685,20.06,73776.5,9.67,3.11,3.45,0,*4D
1498208790.15,2686,20.06,73778.0,9.67,3.07,3.33,0,*48
1498208791.37,2687,20.06,73774.5,9.67,3.33,3.53,0,*48
1498208792.59,2688,20.06,73774.3,9.67,3.41,3.67,0,*45
1498208793.81,2689,20.06,73778.0,9.65,3.59,3.71,0,*48
1498208795.04,2690,20.06,73776.8,9.65,3.59,3.71,0,*40
1498208796.25,2691,20.06,73780.3,9.65,3.53,3.63,0,*48
1498208797.47,2692,20.06,73782.3,9.65,3.41,3.59,0,*41
1498208798.69,2693,20.06,73784.5,9.65,3.49,3.59,0,*48
1498208799.94,2694,20.06,73780.5,9.65,3.71,3.71,0,*4E
1498208801.13,2695,20.06,73782.5,9.67,3.53,3.55,0,*4B
1498208802.29,2696,20.06,73786.3,9.67,3.55,3.55,0,*4E
1498208803.52,2697,20.06,73784.0,9.67,3.67,3.67,0,*4F
1498208804.68,2698,20.06,73784.0,9.67,3.55,3.63,0,*45
1498208805.88,2699,20.06,73786.5,9.67,3.63,3.67,0,*45
1498208807.1,2700,20.06,73786.8,9.67,3.67,3.67,0,*40
1498208808.32,2701,20.06,73784.0,9.65,3.29,3.37,0,*4C
1498208809.55,2702,20.06,73786.8,9.65,3.29,3.49,0,*46
1498208810.77,2703,20.06,73784.8,9.65,3.53,3.63,0,*42
1498208811.98,2704,20.06,73780.5,9.65,3.53,3.59,0,*4C
1498208813.17,2705,20.06,73782.3,9.63,3.49,3.59,0,*40
1498208814.39,2706,20.06,73780.5,9.65,3.59,3.71,0,*4E
1498208815.56,2707,20.06,73786.3,9.63,3.59,3.59,0,*43
1498208816.75,2708,20.06,73780.8,9.65,2.99,2.99,0,*4A
1498208817.97,2709,20.06,73782.5,9.63,2.51,2.55,0,*49
1498208819.2,2710,20.06,73776.0,9.59,2.39,2.47,0,*45
1498208820.41,2711,20.06,73776.3,9.59,2.69,2.69,0,*4D
1498208821.63,2712,20.06,73778.5,9.59,2.59,2.69,0,*4D
1498208822.88,2713,20.06,73776.8,9.57,2.69,2.77,0,*4E
1498208824.1,2714,20.06,73780.8,9.55,2.77,2.81,0,*4D
1498208825.34,2715,20.06,73778.3,9.53,2.89,3.03,0,*40
1498208826.59,2716,20.06,73776.8,9.53,3.45,3.45,0,*40
1498208827.8,2717,20.06,73780.8,9.53,3.55,3.67,0,*40
1498208828.99,2718,20.06,73780.3,9.53,3.55,3.59,0,*42
1498208830.2,2719,20.06,73778.5,9.49,3.53,3.63,0,*47
1498208831.42,2720,20.06,73782.5,9.53,3.59,3.75,0,*4B
1498208832.64,2721,20.06,73780.8,9.53,3.55,3.67,0,*45
1498208833.89,2722,20.06,73778.0,9.49,3.33,3.41,0,*49
1498208835.11,2723,20.06,73782.0,9.47,3.07,3.23,0,*45
1498208836.31,2724,20.06,73782.8,9.47,3.25,3.41,0,*46
1498208837.51,2725,20.06,73780.8,9.47,3.79,3.89,0,*4A
1498208838.72,2726,20.06,73780.8,9.47,3.45,3.53,0,*41
1498208839.94,2727,20.06,73780.8,9.47,3.53,3.71,0,*47
1498208841.16,2728,20.06,73778.8,9.47,3.79,4.01,0,*40
1498208842.35,2729,20.06,73778.0,9.47,3.97,4.33,0,*40
1498208843.6,2730,20.06,73778.8,9.45,3.75,3.97,0,*4F
1498208844.85,2731,20.06,73776.5,9.45,3.49,3.79,0,*41
1498208846.06,2732,20.06,73778.5,9.45,3.53,3.85,0,*4A
1498208847.31,2733,20.06,73778.0,9.45,3.67,4.01,0,*47
1498208848.56,2734,20.06,73772.5,9.45,3.53,3.75,0,*43
1498208849.75,2735,20.06,73778.8,9.43,3.53,3.85,0,*4B
1498208850.95,2736,20.06,73776.8,9.43,4.01,4.33,0,*42
1498208852.13,2737,20.06,73780.3,9.43,4.07,4.33,0,*45
1498208853.38,2738,20.06,73774.3,9.41,3.97,4.31,0,*44
1498208854.56,2739,20.06,73778.5,9.43,4.07,4.45,0,*4A
1498208855.74,2740,20.06,73774.3,9.43,4.23,4.57,0,*41
1498208856.92,2741,20.06,73772.8,9.43,4.23,4.57,0,*40
1498208858.15,2742,20.06,73774.3,9.41,4.31,4.57,0,*42
1498208859.41,2743,20.06,73776.5,9.45,4.31,4.67,0,*44
1498208860.63,2744,20.06,73776.5,9.43,4.31,4.59,0,*48
1498208861.84,2745,20.06,73774.3,9.43,4.33,4.67,0,*46
1498208863.04,2746,20.06,73770.8,9.43,4.45,4.71,0,*43
1498208864.22,2747,20.06,73772.8,9.43,4.19,4.37,0,*49
1498208865.43,2748,20.06,73768.8,9.43,4.31,4.45,0,*49
1498208866.62,2749,20.06,73766.8,9.45,4.07,4.11,0,*4A
1498208867.83,2750,20.06,73774.0,9.45,4.23,4.37,0,*40
1498208869.0,2751,20.06,73768.8,9.43,4.45,4.53,0,*45
1498208870.23,2752,20.06,73770.5,9.45,4.57,4.67,0,*44
1498208871.45,2753,20.06,73768.8,9.41,4.53,4.63,0,*41
1498208872.71,2754,20.06,73764.5,9.41,4.63,4.63,0,*45
1498208873.94,2755,20.06,73770.0,9.43,4.71,4.71,0,*46
1498208875.18,2756,20.06,73766.8,9.43,4.71,4.79,0,*4D
1498208876.41,2757,20.06,73766.5,9.41,4.63,4.57,0,*41
1498208877.58,2758,20.06,73766.8,9.43,4.81,4.81,0,*4B
1498208878.75,2759,20.06,73764.5,9.43,4.89,4.89,0,*4A
1498208879.92,2760,20.06,73768.0,9.43,4.89,4.81,0,*48
1498208881.12,2761,20.06,73766.8,9.43,4.81,4.79,0,*46
1498208882.35,2762,20.06,73764.3,9.41,4.85,4.79,0,*43
1498208883.55,2763,20.06,73764.3,9.43,4.89,4.79,0,*4C
1498208884.77,2764,20.06,73764.5,9.45,4.59,4.49,0,*43
1498208885.98,2765,20.06,73764.5,9.43,4.59,4.49,0,*44
1498208887.2,2766,20.06,73764.5,9.41,4.63,4.41,0,*44
1498208888.4,2767,20.06,73768.0,9.43,4.67,4.45,0,*47
1498208889.58,2768,20.06,73768.3,9.43,4.37,4.19,0,*44
1498208890.78,2769,20.06,73766.3,9.43,4.11,3.97,0,*40
1498208892.0,2770,20.06,73764.0,9.41,4.41,4.31,0,*44
1498208893.23,2771,20.06,73768.8,9.41,4.63,4.41,0,*42
1498208894.46,2772,20.06,73774.3,9.41,4.67,4.41,0,*45
1498208895.69,2773,20.06,73774.0,9.41,4.67,4.57,0,*43
1498208896.91,2774,20.06,73772.5,9.43,4.93,4.67,0,*4E
1498208898.14,2775,20.06,73774.8,9.41,4.79,4.41,0,*4D
1498208899.34,2776,20.06,73774.5,9.41,4.85,4.45,0,*49
1498208900.52,2777,20.06,73778.3,9.43,4.89,4.57,0,*45
1498208901.71,2778,20.06,73776.8,9.41,4.57,4.15,0,*4D
1498208902.91,2779,20.06,73780.0,9.43,4.79,4.45,0,*47
1498208904.12,2780,20.06,73780.8,9.41,4.89,4.57,0,*4F
1498208905.32,2781,20.06,73778.8,9.43,5.15,4.79,0,*44
1498208906.54,2782,20.06,73782.5,9.41,5.07,4.75,0,*4A
1498208907.71,2783,20.06,73782.0,9.43,5.15,4.81,0,*41
1498208908.89,2784,20.06,73786.5,9.43,5.11,4.81,0,*42
1498208910.13,2785,20.06,73786.5,9.45,4.93,4.59,0,*4B
1498208911.36,2786,20.06,73788.3,9.43,4.59,4.31,0,*46
1498208912.6,2787,20.06,73788.8,9.43,4.59,4.31,0,*47
1498208913.78,2788,20.06,73788.0,9.45,4.49,4.19,0,*45
1498208914.95,2789,20.06,73788.8,9.43,4.45,4.11,0,*46
1498208916.15,2790,20.06,73786.3,9.43,4.57,4.31,0,*4F
1498208917.4,2791,20.06,73790.8,9.45,4.79,4.59,0,*4A
1498208918.6,2792,20.06,73788.5,9.47,4.59,4.37,0,*41
1498208919.8,2793,20.06,73794.0,9.47,4.71,4.53,0,*48
1498208921.05,2794,20.06,73794.3,9.45,4.79,4.67,0,*42
1498208922.27,2795,20.06,73794.8,9.45,4.93,4.81,0,*4F
1498208923.53,2796,20.06,73796.8,9.45,5.05,4.93,0,*41
1498208924.76,2797,20.06,73792.5,9.45,4.81,4.71,0,*41
1498208925.96,2798,20.06,73794.0,9.47,4.81,4.71,0,*4C
1498208927.18,2799,20.06,73792.5,9.45,4.67,4.49,0,*4C
1498208928.34,2800,20.06,73792.8,9.47,4.85,4.81,0,*49
1498208929.57,2801,20.06,73792.8,9.47,4.71,4.71,0,*4C
1498208930.74,2802,20.06,73794.3,9.47,4.49,4.41,0,*47